Location: Asheville, NC
(35.6000°N, 82.5500°W)
Time: 00:06:03
(UTC-04:00)

N. Korean satellite - Pass Details

Date: 18 February 2018
Orbit: 458 x 514 km, 97.2° (Epoch: 21 May)

Event Time Altitude Azimuth Distance (km) Brightness Sun altitude
Rises 06:17:29 0° 30° (NNE) 2,571 10.6 -12.1°
Reaches altitude 10° 06:20:04 10° 50° (NE) 1,696 10.0 -11.5°
Maximum altitude 06:22:37 18° 95° (E) 1,284 10.0 -11.0°
Drops below altitude 10° 06:25:11 10° 139° (SE) 1,707 10.1 -10.5°
Sets 06:27:47 0° 159° (SSE) 2,596 10.7 -10.0°
